Location: Ballingbuur
(53.0000°N, 5.7667°E)
Time: 14:51:22
(UTC+00:00)

Meteor 1-27 Rocket - Visible Passes

Search period start: 20 April 2021 00:00
Search period end: 30 April 2021 00:00
Orbit: 830 x 909 km, 81.3° (Epoch: 19 April)

Date Brightness Start Highest point End Pass type
(mag) Time Alt. Az. Time Alt. Az. Time Alt. Az.
20 Apr 3.9 00:20:05 51° SE 00:21:07 60° E 00:26:46 10° NNE visible
20 Apr 5.0 02:02:29 21° W 02:04:54 29° WNW 02:09:51 10° N visible
20 Apr 6.0 22:31:24 10° E 22:32:45 11° ENE 22:34:25 10° ENE visible
21 Apr 3.9 00:13:49 52° SE 00:14:51 61° E 00:20:32 10° NNE visible
21 Apr 5.0 01:56:13 21° W 01:58:40 28° WNW 02:03:35 10° N visible
21 Apr 5.9 22:25:08 11° E 22:26:28 12° ENE 22:28:20 10° ENE visible
22 Apr 3.9 00:07:32 53° SE 00:08:36 63° E 00:14:18 10° NNE visible
22 Apr 5.1 01:49:57 20° W 01:52:25 28° WNW 01:57:20 10° N visible
22 Apr 5.9 22:18:50 11° E 22:20:11 12° ENE 22:22:16 10° NE visible
23 Apr 3.8 00:01:15 53° SSE 00:02:20 65° E 00:08:03 10° NNE visible
23 Apr 5.1 01:43:39 20° W 01:46:12 27° WNW 01:51:05 10° N visible
23 Apr 5.8 22:12:32 11° E 22:13:54 12° ENE 22:16:10 10° NE visible
23 Apr 3.8 23:54:56 53° SSE 23:56:05 66° E 00:01:49 10° NNE visible
24 Apr 5.2 01:37:21 19° W 01:39:58 27° WNW 01:44:49 10° N visible
24 Apr 5.8 22:06:13 12° E 22:07:37 13° ENE 22:10:02 10° NE visible
24 Apr 3.8 23:48:38 53° SSE 23:49:49 68° E 23:55:35 10° NNE visible
25 Apr 5.2 01:31:02 19° W 01:33:44 26° WNW 01:38:34 10° N visible
25 Apr 5.8 21:59:54 12° E 22:01:20 13° ENE 22:03:54 10° NE visible
25 Apr 3.8 23:42:18 53° SSE 23:43:34 70° E 23:49:21 10° NNE visible
26 Apr 5.2 01:24:42 18° W 01:27:29 26° WNW 01:32:18 10° N visible
26 Apr 5.7 21:53:33 12° E 21:55:04 14° ENE 21:57:47 10° NE visible
26 Apr 3.8 23:35:58 52° SSE 23:37:18 71° E 23:43:07 10° NNE visible
27 Apr 5.3 01:18:22 17° W 01:21:16 25° WNW 01:26:03 10° N visible
27 Apr 5.7 21:47:12 13° E 21:48:47 14° ENE 21:51:38 10° NE visible
27 Apr 3.7 23:29:37 51° SSE 23:31:03 73° E 23:36:53 10° NNE visible
28 Apr 5.3 01:12:01 17° W 01:15:03 25° WNW 01:19:46 10° N visible
28 Apr 5.7 21:40:50 13° E 21:42:30 14° ENE 21:45:29 10° NE visible
28 Apr 3.7 23:23:15 49° S 23:24:48 75° E 23:30:39 10° NNE visible
29 Apr 5.4 01:05:39 16° W 01:08:49 24° WNW 01:13:32 10° N visible
29 Apr 5.6 21:34:28 13° E 21:36:13 15° ENE 21:39:19 10° NE visible
29 Apr 3.7 23:16:52 48° S 23:18:33 77° E 23:24:24 10° NNE visible
